Flag Weather past 2 weeks in Ludwigsfelde, Brandenburg, Germany

Now
41 °F

Overcast.


Feels Like: 37 °F
Forecast: 33 / 40 °F
Wind: 5 mph from East

Location: Potsdam

Current Time: Nov 26, 2014 at 4:32:23 PM

Latest Report: Nov 26, 2014 at 4:00 PM


Visibility: 9 mi

Pressure: 30.19 "Hg

Humidity: 85%

Dew point: 36 °F

Location of LudwigsfeldeLocation

Historic Weather in Ludwigsfelde — Graph

°F

Ludwigsfelde temperature yesterday

Maximum temperature yesterday: 39 °F (at 7:00 AM)
Minimum temperature yesterday: 36 °F (at 4:00 AM)
Average temperature yesterday: 38 °F

Past Weeks' High & Low Weather Summary

 TemperatureHumidityPressure
High53 °F (Nov 12, 2:00 PM)100% (Nov 12, 1:00 AM)30.38 "Hg (Nov 12, 1:00 AM)
Low35 °F (Nov 23, 6:00 AM)72% (Nov 22, 2:00 PM)29.57 "Hg (Nov 16, 2:00 PM)
Average44 °F94%30.04 "Hg
* Reported Nov 11 3:00 PM — Nov 26 3:00 PM, Ludwigsfelde, Weather by CustomWeather, © 2014

Note: Actual official high and low records may vary slightly from our data, if they occured in-between our weather recording intervals... More about our weather records

Advertising

Ludwigsfelde weather history for previous 24 hours

 ConditionsComfort  
Time TempWeatherWind HumidityBarometerVisibility
3:00 PM
Nov 26
41 °FOvercast.6 mph88%30.21 "Hg12 mi
2:00 PM41 °FOvercast.6 mph88%30.22 "Hg10 mi
1:00 PM40 °FLow clouds.3 mph90%30.24 "Hg9 mi
12:00 PM40 °FLow clouds.6 mph92%30.25 "Hg9 mi
11:00 AM40 °FLow clouds.5 mph94%30.26 "Hg8 mi
10:00 AM39 °FLow clouds.5 mph97%30.27 "Hg6 mi
9:00 AM38 °FFog.5 mph98%30.27 "Hg4 mi
8:00 AM38 °FFog.5 mph98%30.27 "Hg2 mi
7:00 AM37 °FFog.3 mph99%30.27 "Hg4 mi
6:00 AM37 °FPassing clouds.5 mph99%30.27 "Hg5 mi
5:00 AM38 °FFog.3 mph99%30.28 "Hg2 mi
4:00 AM38 °FFog.3 mph99%30.29 "Hg2 mi
3:00 AM38 °FFog.2 mph100%30.30 "Hg2 mi
2:00 AM38 °FFog.3 mph99%30.31 "Hg2 mi
1:00 AM38 °FFog.2 mph99%30.33 "Hg2 mi
12:00 AM37 °FFog.2 mph99%30.34 "Hg2 mi
11:00 PM
Nov 25
37 °FFog.1 mph99%30.34 "Hg2 mi
10:00 PM38 °FFog.2 mph99%30.35 "Hg2 mi
9:00 PM38 °FFog.2 mph99%30.35 "Hg2 mi
8:00 PM38 °FLow clouds.2 mph99%30.35 "Hg2 mi
7:00 PM39 °FDrizzle. Low clouds.3 mph100%30.36 "Hg1 mi
6:00 PM39 °FFog.2 mph100%30.36 "Hg1 mi
5:00 PM39 °FDrizzle. Dense fog.2 mph100%30.36 "Hg1 mi
4:00 PM38 °FFog.1 mph99%30.35 "Hg0 mi
Weather by CustomWeather, © 2014

See weather overviewHow to use our weather pages